Vorticity
8 5 4 4 8 7 7 5 4 2 4 6 4 4 4 4 6 0 -2 6 6 4 4 7 6 4 4 6 7 6 5 4 3
7 7 6 6 5 6 6 7 8 7 3 3 3 9 5 6 4 2 2 1 1 4 5 7 2 9 4 5 6 6 5 5 4
4 5 5 6 6 5 6 6 5 8 7 7 5 3 5 6 9 10 8 4 5 4 3 2 4 6 4 6 4 4 7 5 5
4 1 1 -0 2 3 4 6 8 6 5 6 7 8 4 6 4 6 6 8 9 12 7 7 5 2 3 7 9 6 3 6 7
2 3 4 5 5 2 5 4 4 5 5 6 6 8 6 4 4 6 5 4 1 2 6 6 7 9 9 5 4 6 9 6 5
0 -1 5 5 5 5 6 7 6 3 4 4 5 6 6 8 7 3 2 2 3 4 3 2 7 3 7 11 7 6 6 8 9
4 4 6 3 3 1 1 3 3 4 4 3 4 4 5 5 6 6 6 5 3 1 3 4 -1 -1 4 2 3 6 5 6 4
3 3 2 2 2 4 2 1 1 2 2 1 2 3 3 0 2 4 5 6 7 5 3 3 4 4 -2 -4 0 2 5 5 6
10 11 11 11 11 11 11 9 8 6 5 5 4 3 3 4 1 2 4 -0 2 6 7 8 7 6 6 4 3 2 4 5 7
5 5 5 4 4 4 5 5 6 7 7 7 7 7 8 8 5 6 2 -2 -1 4 4 -1 1 4 7 7 8 8 8 8 7
4 4 5 5 6 6 6 6 6 6 5 5 5 5 5 7 7 7 7 6 6 5 2 -3 4 5 4 3 3 4 4 6 4
5 6 6 7 7 7 8 8 8 7 7 7 7 6 6 6 6 6 6 6 7 8 9 9 6 2 2 0 4 4 3 4 2
6 6 7 7 7 7 6 6 6 6 6 7 7 7 7 7 7 7 7 7 7 7 7 7 7 9 9 8 7 2 0 1 2
7 8 7 7 7 7 7 7 7 6 7 7 7 7 8 8 9 8 8 8 8 8 9 9 9 8 8 7 8 8 8 6 2
7 6 6 6 5 5 5 6 7 8 9 9 9 8 8 7 8 8 9 10 9 8 7 6 7 7 8 8 10 10 8 7 8
6 5 5 5 6 6 7 8 9 9 8 8 7 8 7 7 6 6 4 4 5 7 9 9 9 8 7 6 6 7 9 10 8
6 6 6 6 6 7 7 7 7 7 7 6 6 7 6 7 8 6 5 4 4 5 7 6 6 8 10 10 9 8 7 7 8
6 7 7 7 7 7 7 9 9 9 8 7 5 9 4 6 7 7 5 5 4 4 3 7 9 8 8 6 8 10 10 9 9
6 6 7 7 6 7 7 8 9 10 11 11 12 10 9 8 5 6 7 5 4 5 4 8 8 8 9 9 9 8 8 9 9
7 6 6 6 6 7 7 9 8 9 9 8 8 7 7 5 3 3 -4 -5 2 4 4 6 6 7 8 10 9 9 8 8 8
Height
3170 3171 3172 3174 3175 3176 3177 3179 3179 3180 3180 3180 3180 3183 3184 3185 3187 3187 3188 3188 3189 3190 3190 3190 3191 3191 3192 3192 3193 3194 3194 3194 3194
3170 3171 3172 3173 3175 3176 3177 3178 3179 3180 3180 3179 3179 3183 3184 3185 3186 3186 3187 3188 3189 3190 3191 3191 3191 3191 3192 3193 3193 3194 3194 3194 3194
3170 3170 3172 3173 3174 3175 3176 3176 3177 3178 3178 3179 3180 3182 3183 3185 3185 3186 3186 3187 3188 3189 3190 3191 3191 3191 3192 3193 3193 3193 3194 3194 3194
3169 3170 3171 3172 3174 3174 3175 3176 3177 3177 3177 3177 3179 3182 3184 3185 3185 3186 3187 3187 3187 3188 3189 3189 3190 3191 3192 3192 3192 3193 3193 3193 3193
3167 3169 3170 3171 3172 3174 3174 3175 3176 3176 3176 3176 3179 3181 3181 3182 3184 3185 3186 3187 3187 3188 3188 3189 3189 3190 3190 3190 3191 3191 3192 3192 3192
3166 3167 3168 3169 3171 3172 3173 3174 3174 3174 3175 3174 3177 3180 3180 3180 3182 3183 3184 3184 3185 3186 3187 3188 3188 3188 3189 3189 3190 3190 3190 3190 3191
3163 3164 3165 3166 3168 3169 3171 3172 3173 3173 3174 3173 3175 3177 3178 3178 3179 3181 3181 3182 3184 3185 3185 3186 3187 3187 3188 3188 3188 3188 3188 3189 3189
3160 3161 3162 3163 3165 3166 3168 3168 3170 3171 3172 3171 3172 3174 3175 3176 3177 3178 3179 3180 3182 3182 3181 3185 3184 3185 3186 3187 3186 3186 3185 3187 3188
3155 3157 3158 3159 3161 3162 3164 3164 3166 3166 3167 3168 3168 3170 3172 3173 3174 3175 3176 3178 3179 3179 3179 3182 3181 3181 3181 3183 3181 3182 3185 3185 3185
3151 3153 3154 3155 3157 3158 3159 3161 3162 3162 3163 3162 3163 3165 3167 3168 3169 3171 3172 3173 3175 3175 3176 3177 3178 3175 3177 3177 3178 3179 3181 3181 3182
3147 3149 3150 3151 3152 3153 3155 3156 3157 3158 3159 3159 3159 3160 3162 3164 3164 3165 3166 3166 3168 3170 3171 3172 3173 3170 3170 3174 3175 3177 3177 3177 3178
3143 3144 3145 3146 3148 3149 3150 3151 3152 3153 3154 3155 3154 3156 3158 3158 3159 3159 3160 3161 3162 3163 3163 3165 3167 3165 3164 3168 3170 3171 3172 3173 3174
3137 3138 3140 3141 3142 3144 3145 3145 3146 3147 3148 3149 3149 3150 3151 3153 3153 3154 3154 3155 3156 3157 3157 3159 3160 3159 3158 3161 3163 3165 3166 3166 3167
3131 3133 3134 3135 3137 3138 3139 3140 3141 3142 3142 3143 3143 3143 3144 3146 3147 3148 3148 3149 3149 3150 3150 3151 3153 3153 3151 3153 3156 3157 3158 3158 3160
3124 3125 3127 3129 3130 3131 3132 3133 3134 3134 3135 3137 3137 3137 3138 3138 3139 3140 3141 3142 3143 3143 3143 3143 3144 3145 3144 3145 3148 3148 3148 3149 3151
3116 3118 3120 3121 3123 3124 3125 3127 3128 3128 3128 3129 3131 3131 3131 3131 3132 3134 3134 3134 3135 3135 3135 3136 3136 3137 3137 3136 3139 3139 3140 3140 3141
3109 3111 3113 3114 3115 3117 3118 3119 3120 3121 3122 3122 3122 3125 3125 3124 3125 3126 3127 3128 3127 3128 3127 3127 3127 3129 3128 3128 3128 3129 3129 3130 3130
3101 3103 3105 3106 3108 3109 3110 3112 3113 3115 3115 3116 3117 3116 3117 3117 3117 3118 3118 3120 3120 3119 3121 3118 3118 3118 3118 3119 3119 3119 3119 3119 3120
3093 3095 3097 3098 3099 3100 3101 3103 3104 3105 3106 3107 3108 3108 3108 3108 3110 3110 3108 3109 3110 3110 3111 3110 3109 3108 3108 3107 3108 3108 3108 3108 3108
3084 3086 3088 3089 3090 3091 3092 3093 3094 3095 3097 3098 3098 3099 3099 3098 3097 3100 3102 3101 3100 3100 3100 3101 3099 3097 3098 3097 3097 3096 3096 3096 3096